Location: Auckland
(36.8670°S, 174.7670°E)
Time: 21:44:50
(UTC+12:00)

Hubble Space Telescope - Pass Details

Date: 03 July 2019
Orbit: 536 x 540 km, 28.5° (Epoch: 23 July)

Event Time Altitude Azimuth Distance (km) Brightness Sun altitude
Exits shadow 05:33:40 14° 348° (NNW) 1,544 3.1 -23.5°
Maximum altitude 05:35:14 17° 15° (NNE) 1,406 3.2 -23.2°
Drops below altitude 10° 05:37:56 10° 56° (NE) 1,794 4.4 -22.6°
Sets 05:40:49 0° 76° (ENE) 2,687 5.9 -22.1°
